Volver al catálogo

STARLINK-32034

ActivoComunicacionesVLEO
NORAD 60297·PAYLOAD·🇺🇸 United States

Lanzado Jul 28, 2024 desde Cape Canaveral Space Force Station

Loading…

Próximos Pases (próximas 24 horas)

TLE

ActualizadoSource: CelesTrak SupGP

Época: Sep 15, 2026, 03:12 UTC

1 60297C 24132V   26258.13381944 -.00043448  00000+0 -13969-2 0  2584
2 60297  53.1578 251.0611 0001308  90.4127 325.4824 15.31728453    14

Sigue STARLINK-32034 en tiempo real con AllMySat

Download on the App Store